GW2806 Weather Reports


time (UTC)temp
C
wind
direction
speed
KPH
gust
KPH
rain 1hr
cm
rain 24hr
cm
rain mn
cm
humidity
%
barometer
mb
20260508121549 4 0 0.0 3.2 0.00 0.00 0.00 92 1017.7
20260508120045 3 0 0.0 3.2 0.00 0.00 0.00 92 1017.6
20260508114543 2 0 0.0 1.6 0.00 0.00 0.00 92 1017.6
20260508113047 1 0 0.0 1.6 0.00 0.00 0.00 92 1017.5
20260508111542 1 0 0.0 0.0 0.00 0.00 0.00 91 1017.3
20260508110043 1 0 0.0 0.0 0.00 0.00 0.00 91 1017.1
20260508104535 0 0 0.0 0.0 0.00 0.00 0.00 90 1017.1
20260508103038 1 0 0.0 0.0 0.00 0.00 0.00 90 1016.9
20260508101546 1 0 0.0 0.0 0.00 0.00 0.00 90 1016.9
20260508100044 1 0 0.0 0.0 0.00 0.00 0.00 90 1016.6
20260508094542 1 0 0.0 0.0 0.00 0.00 0.00 90 1016.6
20260508093036 1 0 0.0 0.0 0.00 0.00 0.00 90 1016.4
20260508091536 1 0 0.0 0.0 0.00 0.00 0.00 89 1016.5
20260508090045 1 0 0.0 0.0 0.00 0.00 0.00 89 1016.3
20260508084542 1 0 0.0 0.0 0.00 0.00 0.00 89 1016.3
20260508083041 2 0 0.0 0.0 0.00 0.00 0.00 89 1016.2
20260508081548 2 0 0.0 0.0 0.00 0.00 0.00 89 1016.1
20260508080037 2 89 1.6 4.8 0.00 0.00 0.00 89 1016.0
20260508074544 2 80 1.6 4.8 0.00 0.00 0.00 88 1016.2
20260508073044 2 87 0.0 1.6 0.00 0.00 0.00 88 1016.1
20260508071539 2 0 0.0 3.2 0.00 0.00 0.00 87 1015.9
20260508070054 3 0 0.0 1.6 0.00 0.00 0.00 87 1015.9
20260508064550 3 0 0.0 3.2 0.00 0.00 0.00 87 1015.9
20260508063043 3 58 0.0 4.8 0.00 0.00 0.00 86 1016.0
20260508061541 3 16 0.0 4.8 0.00 0.00 0.00 86 1016.1
20260508060040 3 14 0.0 3.2 0.00 0.00 0.00 85 1016.1
20260508054552 4 75 0.0 3.2 0.00 0.00 0.00 85 1016.3
20260508053049 4 0 0.0 3.2 0.00 0.00 0.00 84 1016.1
20260508051542 5 54 0.0 4.8 0.00 0.00 0.00 84 1016.0
20260508050047 5 360 3.2 4.8 0.00 0.00 0.00 84 1015.8
20260508044600 5 0 1.6 3.2 0.00 0.00 0.00 83 1015.5
20260508043044 5 0 0.0 0.0 0.00 0.00 0.00 82 1015.5
20260508041543 6 0 0.0 0.0 0.00 0.00 0.00 82 1015.5
20260508040043 6 0 0.0 0.0 0.00 0.00 0.00 82 1015.4
20260508034549 6 0 0.0 0.0 0.00 0.00 0.00 81 1015.3
20260508033037 6 0 0.0 1.6 0.00 0.00 0.00 80 1015.3
20260508031537 7 0 0.0 0.0 0.00 0.00 0.00 78 1015.2
20260508030048 7 0 0.0 0.0 0.00 0.00 0.00 77 1015.1
20260508024540 7 0 0.0 0.0 0.00 0.05 0.00 75 1014.9
20260508023043 8 0 0.0 0.0 0.00 0.05 0.00 73 1014.9
20260508021542 8 0 0.0 0.0 0.00 0.05 0.00 72 1014.5
20260508020044 8 0 0.0 0.0 0.00 0.05 0.00 71 1014.3
20260508014536 9 0 0.0 0.0 0.00 0.05 0.00 70 1014.2
20260508013043 9 0 0.0 0.0 0.00 0.05 0.00 69 1014.0
20260508011544 10 0 0.0 3.2 0.00 0.05 0.00 68 1013.8
20260508010041 10 0 0.0 8.0 0.00 0.05 0.00 67 1013.7
20260508004537 10 0 0.0 3.2 0.00 0.25 0.00 65 1013.6
20260508003046 11 0 0.0 6.4 0.00 0.25 0.00 64 1013.3
20260508001543 11 104 1.6 12.9 0.00 0.25 0.00 62 1013.3
20260508000040 11 151 1.6 11.3 0.00 0.25 0.00 61 1013.2
20260507234538 11 102 4.8 12.9 0.00 0.25 0.00 60 1013.1
20260507233036 11 113 3.2 16.1 0.00 0.25 0.00 61 1013.0
20260507231549 12 118 6.4 14.5 0.00 0.25 0.00 62 1012.8
20260507230046 12 36 4.8 22.5 0.00 0.25 0.00 61 1012.7
20260507224542 12 56 4.8 20.9 0.00 0.25 0.00 58 1012.6
20260507223041 12 124 9.7 22.5 0.00 0.25 0.00 58 1012.5
20260507221548 13 129 9.7 22.5 0.00 0.25 0.00 58 1012.4
20260507220035 12 110 9.7 22.5 0.00 0.25 0.00 58 1012.3
20260507214542 12 56 9.7 20.9 0.00 0.25 0.00 61 1012.2
20260507213041 12 113 6.4 17.7 0.00 0.25 0.00 62 1012.2
20260507211548 11 114 6.4 22.5 0.00 0.25 0.00 61 1012.1
20260507210049 12 166 9.7 20.9 0.00 0.25 0.00 62 1011.8
20260507204543 12 180 6.4 14.5 0.00 0.25 0.00 61 1011.9
20260507203057 12 145 6.4 19.3 0.00 0.25 0.00 62 1011.9
20260507201547 12 109 9.7 24.1 0.00 0.25 0.00 62 1012.3
20260507200047 12 116 8.0 20.9 0.00 0.25 0.00 64 1012.2
20260507194545 12 86 9.7 20.9 0.00 0.25 0.00 65 1012.0
20260507193050 12 80 11.3 22.5 0.00 0.25 0.00 64 1012.2
20260507191544 12 180 6.4 19.3 0.00 0.25 0.00 64 1012.3
20260507190043 12 131 6.4 19.3 0.00 0.25 0.00 64 1012.4
20260507184543 11 171 4.8 19.3 0.00 0.25 0.00 65 1012.7
20260507183042 12 160 6.4 16.1 0.00 0.25 0.00 64 1012.7
20260507181543 12 95 8.0 17.7 0.00 0.25 0.00 66 1012.6
20260507180045 12 131 8.0 17.7 0.00 0.25 0.00 67 1012.6
20260507174550 11 100 6.4 14.5 0.00 0.25 0.00 67 1012.5
20260507173045 11 69 4.8 16.1 0.00 0.25 0.00 67 1012.7
20260507171553 12 89 4.8 17.7 0.00 0.25 0.00 67 1012.3
20260507170044 11 175 3.2 17.7 0.00 0.25 0.00 69 1012.7
20260507164600 11 113 9.7 19.3 0.00 0.43 0.00 72 1012.8
20260507163043 10 137 3.2 16.1 0.00 0.43 0.00 74 1012.9
20260507161545 10 120 1.6 14.5 0.00 0.43 0.00 78 1013.0
20260507160040 9 131 3.2 12.9 0.00 0.43 0.00 81 1013.0
20260507154545 8 0 0.0 6.4 0.00 0.48 0.00 82 1013.2
20260507153048 8 162 1.6 8.0 0.00 0.48 0.00 83 1013.3
20260507151544 8 0 3.2 8.0 0.00 0.48 0.00 84 1013.2
20260507150040 8 229 1.6 9.7 0.00 0.48 0.00 84 1013.4
20260507144546 7 216 3.2 9.7 0.00 0.51 0.00 86 1013.0
20260507143045 8 129 1.6 6.4 0.00 0.51 0.00 87 1013.3
20260507141550 7 170 1.6 6.4 0.00 0.51 0.00 87 1013.4
20260507140040 7 158 3.2 11.3 0.00 0.51 0.00 87 1013.5
20260507134547 7 126 1.6 6.4 0.00 0.64 0.00 88 1013.4
20260507133044 7 0 3.2 12.9 0.00 0.64 0.00 89 1013.6
20260507131543 7 147 6.4 14.5 0.00 0.64 0.00 90 1013.7
20260507130044 7 162 3.2 8.0 0.00 0.64 0.00 91 1013.6
20260507124541 7 168 3.2 12.9 0.00 0.76 0.00 92 1013.9
20260507123044 7 193 4.8 11.3 0.00 0.76 0.00 92 1013.7